Starlink 31745

operational
NORAD ID: 60329 Int'l Des: 2024-136 Owner: SPXS Country: US Constellation: starlink
LEOCIRCULAR

Starlink 31745について

説明を読み込み中...

リアルタイム位置

3D地球を読み込み中...

次回通過

高度履歴

Altitude vs Time

uPlot chart will show altitude changes over time

軌道要素

1 60329U 24136A 25306.28376655 .00000978 00000-0 45140-4 0 9996
2 60329 53.1616 307.7771 0001455 84.0134 276.1033 15.30194026 71361
Epoch: Nov 2, 2025 • Age: 44 hours

現在のステータス

高度 477.9 km
速度 7.63 km/s
衛星直下点 -8.77°S, 150.73°W
打ち上げ日 Aug 2, 2024
運用期間 1.2 years
タイプ internet

技術仕様

分類 Payload
質量 730.00 kg
乾燥質量 700.00 kg
総質量 730.00 kg
長さ 0.30 m
直径 4.10 m
スパン 29.00 m
形状 Box + pan
製造者 SPXS
バスタイプ Starlink V2M
フェーズステータス In Orbit
所有者/国 SPXS/US

大規模コンステレーション

Loading constellations...